User: anonymous   Login
Location: Caltech
(34.1382°N, 118.1253°W)
Time: 13:43:47
(UTC-07:00)
Language:

Cosmos-2242 - Orbit

View from above orbital plane
View from above orbital plane
View from above satellite
View from above satellite

Ground track
Ground track

The orbit data is extracted from the following two-line orbital elements,

1 22626U 93024A   17142.91181462 +.00000234 +00000-0 +22970-4 0  9996
2 22626 082.5238 065.6487 0018347 200.3766 159.6722 14.87656255302096
Epoch (UTC): 22 May 2017 21:53:00
Eccentricity: 0.0018347
inclination: 82.5238°
perigee height: 592 km
apogee height: 618 km
right ascension of ascending node: 65.6487°
argument of perigee: 200.3766°
revolutions per day: 14.87656255
mean anomaly at epoch: 159.6722°
orbit number at epoch: 30209

The dashed part of the orbit path shows where the satellite is in the earth's shadow,  

DLR